Regional Weather Roundup
Issued by NWS

Home | Current Version | Previous Version | Graphics & Text | Print | Product List | Glossary On
Versions: 1 2 3 4 5 6 7 8 9 10 11 12 13 14 15 16 17 18 19 20 21 22 23 24 25 26 27 28 29 30 31 32 33 34 35 36 37 38 39 40 41 42 43 44 45 46 47 48 49 50
000
ASUS43 KMKX 271011
RWRWI

WISCONSIN REGIONAL WEATHER ROUNDUP
NATIONAL WEATHER SERVICE MILWAUKEE/SULLIVAN WI
500 AM CDT FRI MAY 27 2016

NOTE: "FAIR" INDICATES FEW OR NO CLOUDS BELOW 12,000 FEET WITH NO
SIGNIFICANT WEATHER AND/OR OBSTRUCTIONS TO VISIBILITY.

WIZ001-002-006>008-014>016-023>028-271100-
NORTHWEST WISCONSIN

CITY           SKY/WX    TMP DP  RH WIND       PRES   REMARKS
SUPERIOR ARPT  FOG       45  45 100 CALM      29.84F VSB 1/4
ASHLAND        CLOUDY    45  44  97 CALM      29.85S
HAYWARD        PTCLDY    49  47  93 N3        29.87S
SIREN          CLOUDY    58  55  88 SE5       29.84S
CUMBERLAND     CLOUDY    55  54  94 CALM      29.86R
RICE LAKE      CLOUDY    58  55  90 CALM      29.87S
CHETEK         CLOUDY    57  56  99 CALM      29.85F
LADYSMITH      CLOUDY    53  52  96 CALM      29.88F
EAU CLAIRE     CLOUDY    58  56  93 NE6       29.83F
MENOMONIE      CLOUDY    62  57  84 CALM      29.84F
NEW RICHMOND   CLOUDY    62  55  76 SW5       29.84R
OSCEOLA        CLOUDY    62  56  81 S5        29.86S
$$

WIZ003>005-009-010-017-018-271100-
NORTH CENTRAL WISCONSIN

CITY           SKY/WX    TMP DP  RH WIND       PRES   REMARKS
MANITOWISH WTR NOT AVBL
ARBOR VITAE    PTCLDY    52  51  96 CALM      29.90R FOG
WOODRUFF       PTCLDY    52  51  96 CALM      29.90R FOG
RHINELANDER    FOG       51  50  96 CALM      29.90S VSB 1/4
EAGLE RIVER    FOG       50  50 100 CALM      29.90R VSB 1/4
LAND O LAKES   PTCLDY    50  50 100 CALM      29.91R FOG
PHILLIPS       CLOUDY    51  51 100 N3        29.88S
TOMAHAWK       PTCLDY    49  48  97 CALM      29.90S
MEDFORD        CLEAR     55  55 100 CALM      29.88S
MERRILL        FOG       50  50 100 CALM      29.90S VSB 1
$$

WIZ029-030-035-036-043>047-271100-
CENTRAL WISCONSIN

CITY           SKY/WX    TMP DP  RH WIND       PRES   REMARKS
WAUSAU         CLOUDY    57  55  93 CALM      29.88R FOG
MOSINEE        CLOUDY    55  55 100 E3        29.90R
MARSHFIELD     CLOUDY    58  55  90 NE5       29.87S
STEVENS POINT  PTCLDY    53  53  99 CALM      29.89S
WAUPACA        CLEAR     58  58  99 CALM      29.89R
WAUTOMA        CLOUDY    56  56 100 CALM      29.89R
WISC RAPIDS    CLOUDY    57  55  93 NE3       29.88F
CAMP DOUGLAS   CLOUDY    57 N/A N/A E3        29.85F FOG
$$

WIZ011>013-019>022-031-037>040-048>050-271100-
NORTHEAST WISCONSIN

CITY           SKY/WX    TMP DP  RH WIND       PRES   REMARKS
ANTIGO         CLOUDY    52  52 100 CALM      29.91S
SHAWANO        PTCLDY    59  57  94 CALM      29.89S FOG
OCONTO         PTCLDY   N/A N/A N/A CALM      29.88S
STURGEON BAY   NOT AVBL
GREEN BAY      CLEAR     58  56  93 CALM      29.88S FOG
MANITOWOC      PTCLDY    54  51  90 CALM      29.89S
APPLETON       CLEAR     61  54  77 CALM      29.87S
CLINTONVILLE   FOG       54  54 100 CALM      29.88S VSB 1/2
OSHKOSH        PTCLDY    59  56  89 CALM      29.87F
$$

WIZ032>034-041-042-053>061-271100-
SOUTHWEST WISCONSIN

CITY           SKY/WX    TMP DP  RH WIND       PRES   REMARKS
LA CROSSE      CLOUDY    65  60  84 E3        29.83R
SPARTA         CLOUDY    58  58  99 CALM      29.85F
VIROQUA        CLOUDY    61  61  99 CALM      29.85F
BOSCOBEL       LGT RAIN  65  63  93 CALM      29.85F
PRAIRIE DU CHI RAIN      65  64  95 NW5       29.84F
PLATTEVILLE    CLOUDY    64  63  97 S8        29.90R
$$

WIZ056-057-062-063-064-067-068-271100-
SOUTH CENTRAL WISCONSIN

CITY           SKY/WX    TMP DP  RH WIND       PRES   REMARKS
REEDSBURG      CLOUDY    59  59 100 CALM      29.85F
BARABOO/DELLS  CLOUDY    60  58  91 CALM      29.87F
LONE ROCK      CLOUDY    63  60  90 SE3       29.85F
MINERAL POINT  HVY RAIN  64  63  94 S17G35    29.92R
MADISON        CLOUDY    60  57  89 CALM      29.85F
MIDDLETON      CLOUDY    61  58  88 CALM      29.86F
WATERTOWN      CLOUDY    60  60 100 CALM      29.86F
MONROE         LGT RAIN  68  61  77 SW22G31   29.88S
JANESVILLE     CLOUDY    68  64  88 S5        29.88R
$$

WIZ051-052-058>065-066-070>072-271100-
SOUTHEAST WISCONSIN

CITY           SKY/WX    TMP DP  RH WIND       PRES   REMARKS
MILWAUKEE      MOCLDY    69  64  84 SW6       29.87F
WAUKESHA       CLOUDY    61  59  94 CALM      29.89F
MILWAUKEE/TIMM CLOUDY    61  55  82 CALM      29.88F
RACINE         CLOUDY    67  63  87 CALM      29.89F
BURLINGTON     CLOUDY    59  59  97 CALM      29.88F
KENOSHA        CLOUDY    66  64  93 SW3       29.88F
FOND DU LAC    CLOUDY    58  56  93 CALM      29.88S
SHEBOYGAN      CLEAR     57  55  93 CALM      29.88S
WEST BEND      MOCLDY    59  57  94 CALM      29.88F
JUNEAU         PTCLDY    62  59  93 SE3       29.89S
$$

LSZ147-162-271100-
LAKE SUPERIOR

STATION/POSITION TIME  TEMP    WIND        PRES    WAVE
                       AIR SEA DIR/SP/G            HT/PER
                 (UTC) (F)     (DEG/KT/KT) (MB)    (FT/S)
W MID LAKE BUOY  0950   39 38  150/  4/  6 1011.6F   1
DEVILS ISLAND    1000   43      70/  1/  2 1011.8R
SAXON HARBOR     0940   46     170/  1/  3 1010.2F
$$

LMZ867-665-643>646-271100-
LAKE MICHIGAN

STATION/POSITION TIME  TEMP    WIND        PRES    WAVE
                       AIR SEA DIR/SP/G            HT/PER
                 (UTC) (F)     (DEG/KT/KT) (MB)    (FT/S)
CHAMBERS ISLAND  0900   55      CALM  /  2 1012.2R
N MID LAKE BUOY  0950   47 45  160/  4/  4 1012.4S   1/ 4
NORTHPORT PIER   0900   51     140/  3/  4 1012.2R
SISTER BAY       0919   56        CALM       N/A
ALGOMA LAKESHORE 0917             CALM       N/A
KEWAUNEE LAKESHO 0900           40/  1/  2 1011.4R
SHEBOYGAN LAKESH 1000   54     170/  4/  5 1012.2R
PORT WASHINGTON  0900   58     280/  3/  4 1012.9R
S MID LAKE BUOY  0950   54 50  170/ 10/ 10 1012.2R   1
KENOSHA   LAKESH 1000   61     170/  4/  7 1011.5F
$$

TC  - TEMPERATURE IN CELSIUS
VSB - VISIBILITY IN STATUTE MILES
WCI - WIND CHILL INDEX
HX  - HEAT INDEX





USA.gov is the U.S. government's official web portal to all federal, state and local government web resources and services.